Flag Weather past 2 weeks in Casper, Wyoming, U.S.A.

Now
44 °F

Clear.


Feels Like: 38 °F
Forecast: 31 / 45 °F
Wind: 13 mph from Southwest

Location: Natrona County International Airport

Current Time: Nov 28, 2014 at 9:14:49 PM

Latest Report: Nov 28, 2014 at 7:53 PM


Visibility: 10 mi

Pressure: 29.65 "Hg

Humidity: 35%

Dew point: 18 °F

Location of CasperLocation

Historic Weather in Casper — Graph

°F

Casper temperature yesterday

Maximum temperature yesterday: 54 °F (at 2:53 PM)
Minimum temperature yesterday: 38 °F (at 1:53 AM)
Average temperature yesterday: 44 °F

Past Weeks' High & Low Weather Summary

 TemperatureHumidityPressure
High56 °F (Nov 28, 1:53 PM)92% (Nov 26, 2:53 AM)30.48 "Hg (Nov 26, 2:53 AM)
Low-7 °F (Nov 15, 9:53 PM)20% (Nov 28, 2:53 PM)29.47 "Hg (Nov 22, 6:53 PM)
Average26 °F60%30.08 "Hg
* Reported Nov 13 6:53 PM — Nov 28 6:53 PM, Casper, Weather by CustomWeather, © 2014

Note: Actual official high and low records may vary slightly from our data, if they occured in-between our weather recording intervals... More about our weather records

Advertising

Casper weather history for previous 24 hours

 ConditionsComfort  
Time TempWeatherWind HumidityBarometerVisibility
6:53 PM
Nov 28
47 °FClear.17 mph32%29.65 "Hg10 mi
5:53 PM49 °FClear.13 mph27%29.67 "Hg10 mi
4:53 PM52 °FClear.17 mph24%29.67 "Hg10 mi
3:53 PM54 °FSunny.15 mph22%29.67 "Hg10 mi
2:53 PM56 °FSunny.21 mph20%29.66 "Hg10 mi
1:53 PM56 °FSunny.17 mph24%29.66 "Hg10 mi
12:53 PM54 °FSunny.22 mph24%29.69 "Hg10 mi
11:53 AM54 °FSunny.17 mph26%29.72 "Hg10 mi
10:53 AM50 °FSunny.16 mph29%29.77 "Hg10 mi
9:53 AM49 °FSunny.22 mph31%29.76 "Hg10 mi
8:53 AM46 °FSunny.16 mph35%29.80 "Hg10 mi
7:53 AM44 °FSunny.18 mph38%29.83 "Hg10 mi
6:53 AM43 °FClear.15 mph42%29.83 "Hg10 mi
5:53 AM41 °FClear.16 mph47%29.85 "Hg10 mi
4:53 AM40 °FClear.13 mph49%29.86 "Hg10 mi
3:53 AM41 °FClear.14 mph47%29.87 "Hg10 mi
2:53 AM41 °FClear.16 mph49%29.86 "Hg10 mi
1:53 AM42 °FClear.17 mph47%29.88 "Hg10 mi
12:53 AM41 °FClear.15 mph49%29.91 "Hg10 mi
11:53 PM
Nov 27
41 °FClear.14 mph51%29.95 "Hg10 mi
10:53 PM42 °FClear.13 mph51%29.95 "Hg10 mi
9:53 PM45 °FClear.17 mph48%29.96 "Hg10 mi
Weather by CustomWeather, © 2014

See weather overviewHow to use our weather pages